Volver al catálogo

STARLINK-31659

ActivoComunicacionesVLEO
NORAD 59254·PAYLOAD·🇺🇸 United States

Lanzado Mar 19, 2024 desde Vandenberg Space Force Base

Loading…

Próximos Pases (próximas 24 horas)

TLE

ActualizadoSource: CelesTrak SupGP

Época: Sep 14, 2026, 22:30 UTC

1 59254C 24050A   26257.93798611 -.00003971  00000+0 -11730-3 0  2575
2 59254  53.1598  15.5545 0001027  86.7773 273.2458 15.34401008    19

Sigue STARLINK-31659 en tiempo real con AllMySat

Download on the App Store